sat.trackr.live / text

‹ back to catalog

STARLINK-31203

NORAD 58869 · 2024-019S

PAYLOAD ACTIVE UNKNOWN

§ Identity

Operator
Country
US
Launch date
2024-01-29
Launch site
AFETR
Launch vehicle
Mass (kg)
RCS (m²)

Purposes: comms

External: N2YO · Heavens-Above · Gunter

§ Orbital elements

Epoch: 2026-05-25T02:57:47.770848Z

Period
94.27 min
Inclination
43.0020°
Eccentricity
0.0000881
Mean motion
15.27574149 rev/d
Perigee alt
482.5 km
Apogee alt
483.7 km
Semi-major
6,861.2 km
B*
1.9200e-5
RAAN
173.6393°
Arg perigee
286.6858°
Mean anomaly
73.3897°
Rev number
13,081

§ Raw data

STARLINK-312031 58869U 24019S   26145.12346957  .00000266  00000+0  19200-4 0  99962 58869  43.0020 173.6393 0000881 286.6858  73.3897 15.27574149130814

JSON: /api/v1/satellites/58869 · /tle

For live sub-satellite position, see the globe view (requires WebGL).

§ Visibility from observer

Set your observer location to see the next 7 days of passes ≥ 10°. The values pass through the URL so the page stays shareable.

No JS? Fill the form by hand. The geolocation button needs JavaScript.